{"data":{"norad_id":68155,"intl_designator":"2026-049P","name":"STARLINK-37048","alt_names":[],"object_type":"PAYLOAD","status":"ACTIVE","operator":null,"country":"US","launch_date":"2026-03-13","launch_site_code":"AFWTR","launch_vehicle":null,"mission":null,"orbit_class":"UNKNOWN","rcs_meters":null,"size_class":null,"mass_kg":null,"dimensions":null,"purposes":["comms"],"wikipedia_slug":null,"has_3d_model":false,"image_url":null,"decayed_at":null,"tle_current":{"epoch":"2026-09-20T00:36:01.092960Z","epoch_age_seconds":96859,"freshness":"FRESH","line1":"1 68155U 26049P   26263.02501265  .00020369  00000+0  63144-3 0  9996","line2":"2 68155  97.2848 282.9201 0001429 105.8881 254.2519 15.33450999 29429","mean_motion":15.33450999,"eccentricity":0.0001429,"inclination_deg":97.2848,"raan_deg":282.9201,"arg_perigee_deg":105.8881,"mean_anomaly_deg":254.2519,"bstar":0.00063144,"rev_number":2942,"period_min":93.905837287208,"perigee_km":464.54736638663,"apogee_km":466.50328507932,"semimajor_km":6843.662325733,"source":"CELESTRAK","updated_at":"2026-09-20T09:00:43.794649Z"}}}